Voltar ao catálogo

GRACE-FO 2

AtivoCiênciaPO
NORAD 43477·PAYLOAD·🇺🇸 United States

Lançado May 22, 2018 de Vandenberg Space Force Base

Loading…

Próximas Passagens (próximas 24 horas)

TLE

AtualizadoSource: CelesTrak SupGP

Época: Sep 14, 2026, 00:01 UTC

1 43477C 18047B   26257.00118056  .00092608  00000+0  23489-2 0  2577
2 43477  88.9998 185.7614 0010603 113.2102 214.8268 15.39429411    11

Acompanhe GRACE-FO 2 em tempo real com AllMySat

Download on the App Store